Home   Weather   Lewiston   Past weeks

Flag for USA Past Weather in Lewiston, Idaho, USA — Yesterday and Last 2 Weeks

Now
50 °F

Light rain. Overcast.


Feels Like: 50 °F
Forecast: 46 / 54 °F
Wind: No wind

Location: Lewiston-Nez Perce County Airport

Current Time: Apr 26, 2017 at 1:24:04 am

Latest Report: Apr 25, 2017 at 11:56 pm


Visibility: 10 mi

Pressure: 29.81 "Hg

Humidity: 86%

Dew Point: 46 °F

Location of LewistonLocation

Past Weather in Lewiston — Graph

°F

Lewiston Temperature Yesterday

Maximum temperature yesterday: 56 °F (at 2:56 pm)
Minimum temperature yesterday: 47 °F (at 1:56 am)
Average temperature yesterday: 51 °F

High & Low Weather Summary for the Past Weeks

 TemperatureHumidityPressure
High73 °F (Apr 22, 2:56 pm)97% (Apr 20, 4:56 am)30.38 "Hg (Apr 20, 4:56 am)
Low33 °F (Apr 11, 5:56 am)24% (Apr 22, 1:56 pm)29.63 "Hg (Apr 13, 2:56 am)
Average51 °F69%29.98 "Hg
* Reported Apr 10 11:56 pm — Apr 25 11:56 pm, Lewiston, Weather by CustomWeather, © 2017

Note: Actual official high and low records may vary slightly from our data, if they occured in-between our weather recording intervals... More about our weather records

Advertising

Lewiston Weather History for the Previous 24 Hours

Scroll right to see more
 ConditionsComfort  
Time TempWeatherWind HumidityBarometerVisibility
11:56 pm
Tue, Apr 25
50 °FLight rain. Overcast.No wind86%29.81 "Hg10 mi
10:56 pm49 °FMostly cloudy.No wind86%29.82 "Hg10 mi
9:56 pm51 °FOvercast.No wind74%29.82 "Hg10 mi
8:56 pm52 °FClear.No wind72%29.83 "Hg10 mi
7:56 pm53 °FPassing clouds.No wind66%29.83 "Hg10 mi
6:56 pm54 °FMostly cloudy.5 mph64%29.83 "Hg10 mi
5:56 pm54 °FMostly cloudy.5 mph64%29.85 "Hg10 mi
4:56 pm55 °FMore clouds than sun.3 mph62%29.86 "Hg10 mi
3:56 pm56 °FMore clouds than sun.13 mph62%29.87 "Hg10 mi
2:56 pm56 °FOvercast.No wind55%29.89 "Hg10 mi
1:56 pm55 °FOvercast.3 mph62%29.90 "Hg10 mi
12:56 pm52 °FMostly cloudy.5 mph72%29.92 "Hg10 mi
11:56 am51 °FOvercast.7 mph77%29.93 "Hg10 mi
10:56 am51 °FOvercast.3 mph71%29.92 "Hg10 mi
9:56 am52 °FCloudy.No wind69%29.92 "Hg10 mi
8:56 am50 °FOvercast.No wind77%29.92 "Hg10 mi
7:56 am48 °FOvercast.5 mph83%29.92 "Hg10 mi
6:56 am48 °FMostly cloudy.3 mph83%29.90 "Hg10 mi
5:56 am48 °FOvercast.3 mph83%29.89 "Hg10 mi
4:56 am48 °FOvercast.No wind89%29.88 "Hg10 mi
3:56 am47 °FOvercast.6 mph93%29.86 "Hg10 mi
2:56 am47 °FLight rain. Overcast.3 mph90%29.84 "Hg8 mi
1:56 am47 °FLight rain. Overcast.6 mph86%29.83 "Hg10 mi
Weather by CustomWeather, © 2017

See weather overviewHow to use our weather pages